Flag Weather past 2 weeks in Billings, Montana, U.S.A.

Now
36 °F

Mostly cloudy.


Feels Like: 28 °F
Forecast: 30 / 43 °F
Wind: 10 mph from Southwest

Location: Billings Logan International Airport

Current Time: Nov 23, 2014 at 10:39:54 PM

Latest Report: Nov 23, 2014 at 9:53 PM


Visibility: 10 mi

Pressure: 29.88 "Hg

Humidity: 46%

Dew point: 17 °F

Location of BillingsLocation

Historic Weather in Billings — Graph

°F

Billings temperature yesterday

Maximum temperature yesterday: 50 °F (at 9:53 AM)
Minimum temperature yesterday: 35 °F (at 11:53 PM)
Average temperature yesterday: 42 °F

Past Weeks' High & Low Weather Summary

 TemperatureHumidityPressure
High53 °F (Nov 8, 9:53 PM)100% (Nov 9, 8:53 PM)30.89 "Hg (Nov 9, 8:53 PM)
Low-8 °F (Nov 13, 5:53 AM)28% (Nov 8, 9:53 PM)29.40 "Hg (Nov 22, 1:53 PM)
Average21 °F64%30.20 "Hg
* Reported Nov 8 8:53 PM — Nov 23 8:53 PM, Billings, Weather by CustomWeather, © 2014

Note: Actual official high and low records may vary slightly from our data, if they occured in-between our weather recording intervals... More about our weather records

Advertising

Billings weather history for previous 24 hours

 ConditionsComfort  
Time TempWeatherWind HumidityBarometerVisibility
8:53 PM
Nov 23
35 °FOvercast.7 mph48%29.90 "Hg10 mi
7:53 PM36 °FPassing clouds.12 mph44%29.91 "Hg10 mi
6:53 PM37 °FPassing clouds.13 mph41%29.92 "Hg10 mi
5:53 PM35 °FPassing clouds.9 mph44%29.93 "Hg10 mi
4:53 PM39 °FPassing clouds.16 mph36%29.92 "Hg10 mi
3:53 PM42 °FPassing clouds.21 mph30%29.91 "Hg10 mi
2:53 PM42 °FScattered clouds.18 mph30%29.92 "Hg10 mi
1:53 PM43 °FPassing clouds.25 mph31%29.91 "Hg10 mi
12:53 PM42 °FScattered clouds.31 mph30%29.93 "Hg10 mi
11:53 AM40 °FBroken clouds.14 mph40%29.95 "Hg10 mi
10:53 AM41 °FPassing clouds.28 mph41%29.95 "Hg10 mi
9:53 AM38 °FPassing clouds.16 mph48%29.96 "Hg10 mi
8:53 AM34 °FPassing clouds.9 mph54%29.95 "Hg10 mi
7:53 AM31 °FPassing clouds.14 mph61%29.94 "Hg10 mi
6:53 AM33 °FPartly cloudy.20 mph56%29.90 "Hg10 mi
5:53 AM33 °FPassing clouds.18 mph52%29.86 "Hg10 mi
4:53 AM34 °FClear.17 mph46%29.83 "Hg10 mi
3:53 AM36 °FClear.20 mph42%29.79 "Hg10 mi
2:53 AM34 °FClear.16 mph46%29.78 "Hg10 mi
1:53 AM35 °FClear.15 mph46%29.73 "Hg10 mi
12:53 AM34 °FClear.12 mph48%29.71 "Hg10 mi
11:53 PM
Nov 22
35 °FClear.14 mph44%29.68 "Hg10 mi
10:53 PM37 °FPassing clouds.18 mph39%29.65 "Hg10 mi
Weather by CustomWeather, © 2014

See weather overviewHow to use our weather pages